Regional Weather Roundup
Issued by NWS

Home | Current Version | Previous Version | Text Only | Print | Product List | Glossary Off
Versions: 1 2 3 4 5 6 7 8 9 10 11 12 13 14 15 16 17 18 19 20 21 22 23 24 25 26 27 28 29 30 31 32 33 34 35 36 37 38 39 40 41 42 43 44 45 46 47 48 49 50

000
ASUS43 KLMK 241310
RWRKY
KENTUCKY REGIONAL WEATHER ROUNDUP
NATIONAL WEATHER SERVICE LOUISVILLE KY
900 AM EDT THU JUL 24 2014

NOTE "FAIR" INDICATES FEW OR NO CLOUDS BELOW 12,000 FEET
WITH NO SIGNIFICANT WEATHER AND/OR OBSTRUCTIONS TO VISIBILITY.

KYZ001>023-026-027-061>063-070>075-241400-
WESTERN AND SOUTH CENTRAL KENTUCKY

CITY           SKY/WX    TMP DP  RH WIND       PRES   REMARKS
PADUCAH        SUNNY     65  54  67 N9        30.07R
HENDERSON      SUNNY     63  54  72 N8        30.05S
OWENSBORO      SUNNY     67  60  78 N9        30.05R
HOPKINSVILLE   MOSUNNY   68  61  77 NW8       30.03R
BOWLING GREEN  CLOUDY    72  65  78 N7        30.01R
GLASGOW        CLOUDY    70  68  93 NE3       30.01R
$$

KYZ024-025-028>034-038-045-046-053-241400-
NORTH CENTRAL KENTUCKY

CITY           SKY/WX    TMP DP  RH WIND       PRES   REMARKS
LOUISVILLE/SDF MOSUNNY   71  58  63 N14       30.04R
LOUISVILLE/LOU SUNNY     69  56  62 NE10      30.04R
FORT KNOX      PTSUNNY   68  63  83 N6        30.03R
$$

KYZ035>037-039>044-047>052-055>060-089>105-241400-
NORTHEAST KENTUCKY

CITY           SKY/WX    TMP DP  RH WIND       PRES   REMARKS
LEXINGTON      CLOUDY    66  59  78 N13       30.02R
COVINGTON      MOSUNNY   64  55  72 N12       30.06R
FRANKFORT      SUNNY     66  57  72 N8        30.02R
$$

KYZ054-064>069-076>088-106>120-241400-
SOUTHEAST KENTUCKY

CITY           SKY/WX    TMP DP  RH WIND       PRES   REMARKS
JACKSON        FOG       69  67  93 CALM      29.99S VSB<1/4
LONDON         CLOUDY    70  68  93 SW5       30.00R FOG
SOMERSET       CLOUDY    70  70 100 CALM      30.01R FOG
MIDDLESBORO    CLOUDY    69  67  93 CALM      30.00S
MONTICELLO     CLOUDY    71  71 100 CALM      30.01R FOG
$$



USA.gov is the U.S. government's official web portal to all federal, state and local government web resources and services.